[[{"header":{"parameterUnit":"m.s-1","parameterCategory":1,"la1":30.2992,"la2":30.254,"lo1":-89.0895,"lo2":-89.0443,"dy":0.0025,"dx":0.0025,"nx":19,"ny":19,"refTime":"2026-04-04T03:00:00:Z","depth":0,"parameterNumber":2,"parameterNumberName":"U-component_of_WINDS"},"data":[0,0,0,0.3877,0.3878,0.3932,0.3932,0.4009,0.401,0,0,0,0,0,0,0,0,0,0,0,0.3863,0.3864,0.3877,0.3878,0.3932,0.3932,0.4009,0.401,0,0,0,0,0,0,0,0,0,0,0,0.3863,0.3863,0.3864,0.3878,0.3932,0.3932,0.4009,0.3966,0,0,0,0,0,0,0,0,0,0,0.3913,0.3902,0.3863,0.3864,0.3879,0.3932,0.3932,0.3964,0.3969,0.3988,0,0.4002,0,0.4007,0.4016,0.4016,0,0,0,0.3878,0.3898,0.3909,0.3864,0.3879,0.3932,0.3907,0.3967,0.3972,0.3994,0.4003,0.4006,0.4008,0.4016,0.4016,0.4117,0.4117,0,0,0.3875,0.3875,0.3906,0.3913,0.3901,0.3906,0.3909,0.397,0.3981,0.4003,0.4007,0.4009,0.4017,0.4017,0.4116,0.4117,0,0,0,0.3867,0.3873,0.3883,0.391,0.3919,0.3907,0.3911,0.3978,0.3982,0.4008,0.401,0.4017,0.4018,0.4116,0.4117,0.414,0,0,0,0.3865,0.3868,0.3882,0.3883,0.3918,0.3949,0.3918,0.3977,0.3984,0.401,0.4017,0.4019,0.4115,0.4116,0.4138,0.4152,0,0,0,0.3859,0.3867,0.3875,0.3883,0.3905,0.3948,0.3954,0.3979,0.3986,0.4016,0.4019,0.4115,0.4116,0.4136,0.415,0.4179,0,0,0,0.3854,0.3898,0.3876,0.3925,0.3905,0.396,0.3954,0.3996,0.4025,0.4017,0.4115,0.4117,0.4136,0.4148,0.4177,0.4205,0.4215,0,0,0.3909,0.3904,0.3933,0.3915,0.3974,0.3952,0.4015,0.4043,0.4048,0.4095,0.4097,0.4139,0.415,0.4179,0.4272,0.4281,0,0,0,0.3951,0.3972,0.3987,0.4012,0.4032,0.4051,0.4068,0.4078,0.4117,0.407,0.4156,0.4163,0.418,0.4193,0.4201,0.4216,0.4122,0.4122,0.4122,0.4033,0.4032,0.408,0.4086,0.411,0.4126,0.4147,0.4164,0.416,0.4179,0.4194,0.4251,0.4266,0.4272,0.4288,0.4207,0.4207,0.4207,0.4207,0.4115,0.4145,0.4133,0.4176,0.4176,0.4214,0.423,0.4225,0.4262,0.424,0.4255,0.4233,0.4281,0.4295,0.4209,0.4209,0.4209,0.4208,0.4208,0.417,0.4184,0.4192,0.4227,0.4255,0.4259,0.4294,0.4293,0.4294,0.4308,0.4324,0.4324,0.4325,0.4315,0.4315,0.4316,0.4316,0.4316,0.4316,0.4225,0.4233,0.426,0.4282,0.4297,0.4317,0.4331,0.4347,0.4366,0.4363,0.4363,0.4358,0.4284,0.4266,0.4319,0.4319,0.4318,0.4318,0.4318,0.4313,0.4292,0.4334,0.4348,0.4373,0.4401,0.4397,0.443,0.4443,0.446,0.445,0.4395,0.4391,0.4386,0.4372,0.4448,0.4448,0.4448,0.4448,0.4361,0.4357,0.4399,0.4422,0.4445,0.4445,0.4496,0.4507,0.4516,0.4525,0.4513,0.4493,0.4487,0.4487,0.4479,0.4466,0.4566,0.4566,0.4566,0.4416,0.4413,0.4455,0.4459,0.4478,0.4495,0.4542,0.4572,0.4579,0.4571,0.4532,0.4527,0.4495,0.4484,0.4479,0.4467,0.4443,0,0]},{"header":{"parameterUnit":"m.s-1","parameterCategory":1,"la1":30.2992,"la2":30.254,"lo1":-89.0895,"lo2":-89.0443,"dy":0.0025,"dx":0.0025,"nx":19,"ny":19,"refTime":"2026-04-04T03:00:00:Z","depth":0,"parameterNumber":3,"parameterNumberName":"V-component_of_WINDS"},"data":[0,0,0,-0.4636,-0.4628,-0.4239,-0.4237,-0.3723,-0.3718,0,0,0,0,0,0,0,0,0,0,0,-0.4747,-0.4743,-0.4637,-0.4627,-0.4239,-0.4237,-0.3724,-0.3718,0,0,0,0,0,0,0,0,0,0,0,-0.4748,-0.4744,-0.474,-0.4625,-0.4239,-0.4237,-0.3725,-0.4022,0,0,0,0,0,0,0,0,0,0,-0.4402,-0.4501,-0.4745,-0.4739,-0.4623,-0.4239,-0.4237,-0.4037,-0.4004,-0.3894,0,-0.3801,0,-0.3752,-0.3683,-0.3682,0,0,0,-0.4627,-0.4529,-0.443,-0.4739,-0.4619,-0.424,-0.4414,-0.4019,-0.3981,-0.385,-0.3793,-0.3775,-0.3744,-0.368,-0.3677,-0.3061,-0.3058,0,0,-0.4649,-0.4672,-0.4456,-0.4405,-0.4472,-0.4426,-0.4402,-0.3996,-0.3933,-0.3792,-0.3763,-0.3735,-0.3677,-0.3673,-0.3063,-0.306,0,0,0,-0.471,-0.4686,-0.4598,-0.4426,-0.4358,-0.4415,-0.4387,-0.3951,-0.3921,-0.3757,-0.3729,-0.3674,-0.3667,-0.3066,-0.3062,-0.2943,0,0,0,-0.4723,-0.4723,-0.4607,-0.4617,-0.4366,-0.4151,-0.4351,-0.3949,-0.3902,-0.3732,-0.3673,-0.3662,-0.307,-0.3064,-0.2953,-0.2879,0,0,0,-0.4773,-0.4728,-0.4672,-0.4619,-0.4454,-0.4157,-0.4103,-0.3938,-0.3884,-0.3681,-0.3661,-0.3072,-0.3065,-0.2962,-0.2894,-0.2725,0,0,0,-0.483,-0.4565,-0.467,-0.4363,-0.4457,-0.409,-0.4106,-0.3828,-0.364,-0.3671,-0.3069,-0.3063,-0.2965,-0.2903,-0.2735,-0.2585,-0.2526,0,0,-0.4507,-0.4526,-0.4344,-0.4428,-0.4049,-0.4147,-0.3748,-0.3549,-0.3504,-0.3209,-0.3194,-0.295,-0.2895,-0.2727,-0.2193,-0.2146,0,0,0,-0.4249,-0.4118,-0.4013,-0.3841,-0.369,-0.3553,-0.3416,-0.3343,-0.3094,-0.336,-0.2844,-0.2811,-0.2711,-0.2637,-0.2598,-0.251,-0.3031,-0.3032,-0.3033,-0.3817,-0.3786,-0.3482,-0.3404,-0.3236,-0.3103,-0.2962,-0.2841,-0.2848,-0.2728,-0.2637,-0.2319,-0.2234,-0.2204,-0.2113,-0.2559,-0.2559,-0.2558,-0.2558,-0.3339,-0.3148,-0.3178,-0.2895,-0.2861,-0.2619,-0.2482,-0.2498,-0.2265,-0.2382,-0.2292,-0.2419,-0.2155,-0.2073,-0.2549,-0.255,-0.2551,-0.2552,-0.2553,-0.3049,-0.2952,-0.2877,-0.263,-0.2442,-0.2371,-0.2151,-0.2126,-0.2099,-0.2012,-0.1914,-0.1916,-0.1912,-0.1969,-0.1968,-0.1967,-0.1966,-0.1965,-0.1964,-0.2776,-0.2696,-0.2516,-0.2343,-0.2232,-0.2083,-0.1954,-0.1841,-0.1711,-0.1709,-0.1708,-0.1728,-0.2138,-0.224,-0.1947,-0.195,-0.1952,-0.1954,-0.1955,-0.2294,-0.2403,-0.2125,-0.2016,-0.1812,-0.1628,-0.1606,-0.1382,-0.1287,-0.1178,-0.1221,-0.153,-0.1544,-0.1575,-0.1658,-0.1232,-0.1232,-0.1232,-0.1232,-0.2047,-0.2058,-0.1772,-0.1599,-0.1427,-0.1382,-0.1066,-0.0966,-0.0875,-0.0814,-0.0874,-0.0985,-0.1018,-0.1011,-0.1055,-0.1132,-0.0581,-0.058,-0.058,-0.1748,-0.1743,-0.1479,-0.1403,-0.1245,-0.1108,-0.0811,-0.0608,-0.0528,-0.0553,-0.0765,-0.0792,-0.0971,-0.1031,-0.1052,-0.112,-0.1261,0,0]}]]